Terug naar catalogus

STARLINK-11517

ActiefCommunicatieVLEO
NORAD 62559·PAYLOAD·🇺🇸 United States

Gelanceerd Jan 10, 2025 vanaf Cape Canaveral Space Force Station

Loading…

Volgende Passages (komende 24 uur)

TLE

VersSource: CelesTrak SupGP

Epoch: Sep 14, 2026, 23:04 UTC

1 62559C 25006F   26257.96159722  .00081688  00000+0  63461-3 0  2573
2 62559  43.0008  79.1103 0001687 275.9260 278.3515 15.70792488    11

Volg STARLINK-11517 in realtime met AllMySat

Download on the App Store